Flag for U.S.A. Weather past 2 weeks in Ocala, Florida, U.S.A.

Now
79 °F

Broken clouds.


Feels Like: 82 °F
Forecast: 72 / 83 °F
Wind: 6 mph from Northeast

Location: Ocala Municipal

Current Time: Aug 30, 2015 at 7:23:29 PM

Latest Report: Aug 30, 2015 at 6:50 PM


Visibility: 10 mi

Pressure: 30.00 "Hg

Humidity: 84%

Dew point: 73 °F

Location of OcalaLocation

Historic Weather in Ocala — Graph

°F

Ocala temperature yesterday

Maximum temperature yesterday: 88 °F (at 1:50 PM)
Minimum temperature yesterday: 72 °F (at 3:35 AM)
Average temperature yesterday: 75 °F

Past Weeks' High & Low Weather Summary

 TemperatureHumidityPressure
High93 °F (Aug 19, 3:50 PM)100% (Aug 16, 5:15 AM)30.13 "Hg (Aug 16, 5:15 AM)
Low70 °F (Aug 15, 9:35 PM)47% (Aug 25, 4:50 PM)29.87 "Hg (Aug 25, 6:50 PM)
Average77 °F85%30.01 "Hg
* Reported Aug 15 5:50 PM — Aug 30 5:50 PM, Ocala, Weather by CustomWeather, © 2015

Note: Actual official high and low records may vary slightly from our data, if they occured in-between our weather recording intervals... More about our weather records

Advertising

Ocala weather history for previous 24 hours

 ConditionsComfort  
Time TempWeatherWind HumidityBarometerVisibility
5:50 PM
Sun, Aug 30
79 °FBroken clouds.6 mph84%29.99 "Hg10 mi
4:50 PM81 °FPartly sunny.3 mph79%29.98 "Hg10 mi
3:50 PM81 °FPartly sunny.7 mph79%29.99 "Hg10 mi
2:50 PM84 °FPartly sunny.8 mph74%30.00 "Hg10 mi
1:50 PM84 °FLight rain. Mostly cloudy.9 mph74%30.01 "Hg7 mi
12:50 PM84 °FMostly cloudy.6 mph74%30.03 "Hg10 mi
11:50 AM84 °FOvercast.6 mph74%30.04 "Hg10 mi
10:50 AM82 °FPartly sunny.No wind79%30.04 "Hg10 mi
9:50 AM79 °FSunny.No wind84%30.03 "Hg10 mi
8:50 AM75 °FScattered clouds.No wind89%30.03 "Hg10 mi
7:50 AM72 °FClear.No wind94%30.02 "Hg10 mi
6:50 AM72 °FClear.No wind94%30.01 "Hg10 mi
6:35 AM72 °FClear.No wind94%30.01 "Hg10 mi
6:15 AM72 °FClear.No wind94%30.01 "Hg10 mi
5:55 AM72 °FClear.No wind94%30.02 "Hg10 mi
5:35 AM72 °FClear.No wind94%30.01 "Hg10 mi
5:15 AM72 °FClear.No wind94%30.01 "Hg10 mi
4:55 AM72 °FClear.No wind94%30.01 "Hg10 mi
4:35 AM72 °FClear.No wind94%30.01 "Hg10 mi
4:15 AM72 °FClear.No wind94%30.00 "Hg10 mi
3:55 AM72 °FClear.No wind94%30.00 "Hg10 mi
3:35 AM72 °FClear.3 mph94%29.99 "Hg10 mi
3:15 AM72 °FClear.3 mph94%29.99 "Hg10 mi
2:55 AM72 °FClear.No wind94%29.99 "Hg10 mi
2:35 AM72 °FPassing clouds.3 mph94%30.01 "Hg10 mi
2:15 AM72 °FPassing clouds.3 mph94%30.02 "Hg10 mi
1:55 AM72 °FPassing clouds.No wind94%30.04 "Hg10 mi
1:35 AM73 °FClear.No wind89%30.04 "Hg10 mi
1:15 AM73 °FClear.5 mph89%30.03 "Hg10 mi
12:55 AM73 °FClear.6 mph89%30.04 "Hg10 mi
12:35 AM73 °FClear.5 mph89%30.05 "Hg10 mi
11:55 PM
Sat, Aug 29
73 °FPassing clouds.5 mph89%30.07 "Hg10 mi
11:35 PM72 °FClear.3 mph94%30.08 "Hg10 mi
11:15 PM72 °FPassing clouds.No wind94%30.08 "Hg10 mi
10:55 PM72 °FPassing clouds.No wind94%30.08 "Hg10 mi
10:35 PM72 °FClear.No wind94%30.07 "Hg10 mi
10:15 PM72 °FClear.3 mph94%30.06 "Hg10 mi
9:55 PM72 °FClear.No wind94%30.05 "Hg10 mi
9:35 PM72 °FClear.3 mph94%30.05 "Hg10 mi
9:15 PM72 °FClear.No wind94%30.03 "Hg10 mi
8:55 PM72 °FClear.No wind94%30.03 "Hg10 mi
8:35 PM72 °FSunny.No wind94%30.04 "Hg10 mi
8:15 PM72 °FSunny.No wind94%30.03 "Hg10 mi
7:55 PM72 °FSunny.No wind94%30.03 "Hg10 mi
Weather by CustomWeather, © 2015

See weather overviewHow to use our weather pages